KUIPER-00119

导读

KUIPER-00119是美国亚马逊“柯伊伯计划”中的一颗近地轨道互联网卫星,于2025年8月11日发射入轨,属于柯伊伯第一代星座系统的组成部分。该项目计划部署超3200颗卫星打造卫星互联网,旨在挑战SpaceX星链的市场主导地位。KUIPER-00119的成功发射,助力亚马逊推进星座部署进度,以满足FCC对2026年7月前完成一半部署的许可要求,推动全球卫星互联网组网进程。

基本信息
目录编号:
65155
目录名称:
KUIPER-00119
国际标识:
2025-171Z
轨道中心:
EARTH
卫星名称:
KUIPER-00119
卫星全名:
KUIPER-00119
卫星状态:
在轨 (已飞行397 天)
发射日期:
2025-08-11 UTC
国别 :
美国 (US)
星等 :
--
该卫星已列入 空间交会检测服务 Space Conjunction Data Service (SCDS) ,当前飞行风险评估等级: 高风险
轨道信息
数据来源 国际轨道数据 AOE轨道数据
星历时间 2026-09-12T00:23:27+0800
11小时前
查看轨道信息
2026-09-06T09:00:00+0800
6天前
查看轨道信息
半长轴 7007.691km 7007.71km
偏心率 0.0000611 0.000175
轨道倾角 51.901° 51.907°
近地点辐角 115.601° 80.157°
升交点赤经 60.718° 85.661°
平近点角 244.502° 86.470°
近地点 629.125km 628.346km
远地点 629.983km 630.8km
周期 97.302分钟 97.302分钟
每日圈数 14.799272 14.799212
详细信息
使用方式:
暂无
2D轨道图
3D轨道图
轨道高度分析图
轨道倾角分析图
轨道综合分析图
查看轨道综合分析图
与全量物体交会距离演化趋势
与全量物体交会风险概率演化趋势